Regional Weather Roundup
Issued by NWS

Home | Current Version | Previous Version | Graphics & Text | Print | Product List | Glossary On
Versions: 1 2 3 4 5 6 7 8 9 10 11 12 13 14 15 16 17 18 19 20 21 22 23 24 25 26 27 28 29 30 31 32 33 34 35 36 37 38 39 40 41 42 43 44 45 46 47 48 49 50
000
ASUS43 KLOT 041021
RWRIL

ILLINOIS REGIONAL WEATHER ROUNDUP
NATIONAL WEATHER SERVICE CHICAGO/ROMEOVILLE IL
500 AM CDT MON MAY 04 2015

NOTE: "FAIR" INDICATES FEW OR NO CLOUDS BELOW 12,000 FEET WITH NO
SIGNIFICANT WEATHER AND/OR OBSTRUCTIONS TO VISIBILITY.

* THESE STATIONS ARE NOT UNDER NWS QUALITY CONTROL. THEY ALSO MAY NOT
  REPORT WEATHER SUCH AS PRECIPITATION OR FOG.

ILZ001-002-007-009-015-016-024-041100-
NORTHWEST ILLINOIS

CITY           SKY/WX    TMP DP  RH WIND       PRES   REMARKS
MOLINE         CLOUDY    60  57  89 VRB3      29.95S
STERLING*      CLOUDY    59  55  88 CALM      29.96R
SAVANNA*       LGT RAIN  60  58  93 NW5       29.96R
$$

ILZ003-004-008-010-011-017-018-041100-
NORTH CENTRAL ILLINOIS

CITY           SKY/WX    TMP DP  RH WIND       PRES   REMARKS
ROCKFORD       CLOUDY    59  55  87 CALM      29.93R
FREEPORT*      CLOUDY    56  55  95 W3        29.94R
ROCHELLE*      DRIZZLE   58  56  92 S14       29.92R
DE KALB*       LGT RAIN  57  54  90 S8        29.92F
PERU*          RAIN      60  56  85 S14       30.00R
$$

ILZ005-006-012>014-019>023-041100-
NORTHEAST ILLINOIS

CITY           SKY/WX    TMP DP  RH WIND       PRES   REMARKS
CHICAGO-OHARE  CLOUDY    61  53  75 S10       29.90F
CHICAGO-MIDWAY CLOUDY    64  53  67 S10       29.92F
AURORA         CLOUDY    60  54  80 S9        29.93F
LANSING*       LGT RAIN  60  52  77 SW10      29.96F
JOLIET*        CLOUDY    61  57  87 S6        29.95F
WAUKEGAN       CLOUDY    60  56  86 SW3       29.89S
DUPAGE AIRPORT CLOUDY    59  55  87 S10       29.90F
KANKAKEE*      CLOUDY    60  55  82 SW5       29.99F
WHEELING       CLOUDY    61  54  77 SE3       29.90F
MORRIS*        CLOUDY    60  57  88 S7        29.93F
ROMEOVILLE*    CLOUDY    58  54  84 SW8       29.94F
NORTHERLY ISL    N/A     64  51  62 SW8         N/A
$$

LMZ740>746-041100-
SOUTHERN LAKE MICHIGAN

STATION/POSITION SKY/WX   TEMP    WIND        PRES    VSBY  WAVE
                          AIR SEA DIR/SP/G                  HT/PER
                          (F)     (DEG/KT/KT) (MB)    (MI)  (FT/S)
HARRISON CRIB              62     200/ 16/ 17   N/A
BURNHAM HARBOR             64     190/ 10/ 12   N/A
CALUMET HARBOR             67     220/  7/ 13   N/A
BURNS HARBOR               67     210/ 17/ 26 1014.6R
MICHIGAN CITY              66     200/ 18/ 22   N/A
MICHIGAN CITY 6N           58 50  240/ 14/ 17   N/A           2/ 3
ST. JOSEPH                 55 47  250/ 10/ 12   N/A           2/ 3
$$

ILZ025>027-034>036-040-047-049-050-058-095>099-041100-
WEST-CENTRAL ILLINOIS

CITY           SKY/WX    TMP DP  RH WIND       PRES   REMARKS
QUINCY         CLOUDY    67  54  63 SW12      29.96R
GALESBURG*     CLOUDY    59  57  92 E7        29.98F
MACOMB*        TSTM      59  58  97 E10       30.02R
JACKSONVILLE*  CLOUDY    69  55  60 SW8       29.98R
PITTSFIELD*    CLOUDY    69  55  60 SW12      29.99S
$$

ILZ028>032-037-038-041>044-048-051>054-059>061-041100-
CENTRAL ILLINOIS

CITY           SKY/WX    TMP DP  RH WIND       PRES   REMARKS
PONTIAC        CLOUDY    64  55  75 CALM      30.00S
BLOOMINGTON    TSTM      64  54  68 W10       30.04R
DECATUR        CLOUDY    65  52  62 S9        30.00R
PEORIA         LGT RAIN  63  57  81 N7        30.00R
LACON*         CLOUDY    60  58  92 W3        30.02R
LINCOLN*       CLOUDY    65  56  74 SW5       29.97R
SPRINGFIELD    CLOUDY    67  53  61 S14       29.98R
TAYLORVILLE    CLOUDY    64  50  59 S13G18    30.00S
$$

ILZ033-039-045-046-055>057-062-063-041100-
EAST-CENTRAL ILLINOIS

CITY           SKY/WX    TMP DP  RH WIND       PRES   REMARKS
CHAMPAIGN      CLOUDY    62  52  69 S13       30.00S
DANVILLE*      CLOUDY    62  49  62 SW13      29.98S
RANTOUL*       CLOUDY    67  52  59 SW12      29.99S
MATTOON        CLOUDY    63  49  60 S10       30.02R
PARIS*         CLOUDY    63  50  61 S14G21    30.04S
$$

ILZ079-100>102-041100-
SOUTHWEST ILLINOIS

CITY           SKY/WX    TMP DP  RH WIND       PRES   REMARKS
ALTON          CLOUDY    66  51  57 S6        30.02R
BELLEVILLE     CLOUDY    64  54  70 VRB2      30.03R
CAHOKIA*       CLOUDY    64  54  69 SE6       30.02R
SPARTA*        CLOUDY    64  50  61 S7        30.06R
$$

ILZ064>066-069>071-074>076-080>082-084>086-088>090-092>094-041100-
SOUTH-CENTRAL ILLINOIS

CITY           SKY/WX    TMP DP  RH WIND       PRES   REMARKS
CARBONDALE     MOCLDY    59  50  72 CALM      30.07R
CAIRO*         PTCLDY    64  51  62 S7        30.08R
EFFINGHAM*     MOCLDY    64  45  50 SE5       30.06R
MARION         PTCLDY    59  52  77 S5        30.08R
MT. VERNON     MOCLDY   N/A N/A N/A SW5       30.07R
CENTRALIA*     MOCLDY    63  47  55 S12       30.05R
SALEM*         MOCLDY    67  48  49 S9        30.05S
METROPOLIS*    PTCLDY    65  51  61 S5        30.08S
$$

ILZ067-068-072-073-078-083-087-091-041100-
SOUTHEAST ILLINOIS

CITY           SKY/WX    TMP DP  RH WIND       PRES   REMARKS
LAWRENCEVILLE  PTCLDY    59  50  72 S6        30.07S
FLORA*         PTCLDY    64  49  59 S9        30.06R
FAIRFIELD*     CLOUDY    63  51  65 S5        30.06S
HARRISBURG*    PTCLDY    62  51  68 S3        30.08S
ROBINSON*      MOCLDY    58  50  74 S7        30.07S
CARMI*         PTCLDY    59  49  68 S5        30.07S
$$

ABBREVIATIONS USED IN REMARKS
   TC - TEMPERATURE IN CELSIUS
  WCI - WIND CHILL INDEX
   HX - HEAT INDEX
  VSB - VISIBILITY
$$




USA.gov is the U.S. government's official web portal to all federal, state and local government web resources and services.